TDRS 13 (42915 NORAD) Tracking and Keplerian Element Data

This shows tracking and keplerian element data for the satellite.

Feedback or suggestion? Click here.




ElementValue
Catalog42915
NameTDRS 13
Epoch Orbit491
Epoch Day350.81785333
Epoch Year2018
RAAN330.8909
Inclination6.3891
Eccentricity0.0027678
Argument of Perigee5.7955
Mean Anonmoly354.2699
Mean Motion1.00266923
Decay Rate-2.78E-06
L11 42915U 17047A 18350.81785333 -.00000278 00000-0 00000+0 0 9992
L22 42915 6.3891 330.8909 0027678 5.7955 354.2699 1.00266923 4914

Live tracking and technical data element details for TDRS 13 (NORAD 42915). TDRS 13 can be tracked NOW for your location showing map with azimuth and elevation plus other details from your city location.

Track the satellite on the map from your city or location and see movement details for azimuth, elevation, latitude, longitude, range, height, and movement on the map or in text.







IsCatalogInMostPopularTable: catalog: 42915, numindb: 151
Update: records affected: 1



GetName: 42915 TDRS 13

Hit Count: updated at: Tue, 18 Dec 2018 21:29:17 GMT